#timestamp,LO_Frequency,Hit,StdDev 
1617570715.2,286047030.9,P
1617570735.0,286047032.7,P
1617570735.9,286047032.7,P
1617570755.8,286047032.5,Y
1617570775.6,286047001.0,P
1617570795.4,286047000.0,N
1617570815.3,286046998.4,N
1617570835.1,286047000.4,N
1617570855.8,286047000.0,N
1617570875.7,286047002.8,N
1617570895.5,286047002.5,N
1617570915.4,286047002.2,N
1617570935.2,286047004.1,N
1617570955.0,286047001.7,N
1617570955.9,286047001.7,N
1617570975.8,286047001.4,N
1617570995.6,286047002.6,N
1617571015.4,286047004.4,N
1617571035.3,286047003.5,N
1617571055.1,286047004.7,N
1617571075.9,286047006.9,N
1617571095.7,286047007.0,N
1617571115.5,286047006.1,N
1617571135.4,286047009.2,N
1617571155.2,286047008.1,N
1617571175.1,286047009.5,N
1617571176.0,286047009.5,N
1617571195.8,286047010.3,N
1617571215.6,286047010.4,N
1617571235.5,286047010.4,N
1617571255.3,286047010.2,N
1617571275.1,286047012.4,N
1617571295.9,286047012.1,N
1617571315.7,286047011.7,N
1617571335.6,286047011.5,N
1617571355.4,286047011.9,N
1617571375.2,286047013.7,Y
1617571395.1,286047006.3,P
1617571396.0,286047006.3,P
1617571415.8,286047007.0,P
1617571435.7,286047008.6,Y
1617571455.5,286047001.7,P
1617571475.3,286047001.4,N
1617571495.2,286047004.3,N
1617571515.0,286047003.7,N
1617571515.9,286047003.7,N
1617571535.7,286047005.2,Y
1617571555.6,286047004.1,P
1617571575.4,286047004.1,P
1617571595.3,286047005.8,P
1617571615.1,286047005.2,Y
1617571635.8,286047002.5,P
1617571655.7,286046999.8,N
1617571675.5,286047001.5,N
1617571695.3,286047004.0,N
1617571715.2,286047003.4,N
1617571735.0,286047004.5,N
1617571735.9,286047004.5,N
1617571755.8,286047007.4,Y
1617571775.6,286047005.8,P
1617571795.4,286047005.4,P
1617571815.3,286047005.5,P
1617571835.1,286047005.8,Y
1617571855.9,286047001.8,P
1617571875.7,286047001.4,N
1617571895.5,286047003.7,N
1617571915.4,286047003.3,N
1617571935.2,286047003.0,N
1617571955.0,286047005.5,Y
1617571955.9,286047005.5,P
1617571975.8,286047002.4,N
1617571995.6,286047004.3,P
1617572015.5,286047004.1,Y
1617572035.3,286046999.8,P
1617572055.1,286047000.2,N
1617572075.9,286047001.7,N
1617572095.7,286047002.1,N
1617572115.5,286047001.6,N
1617572135.4,286047001.3,N
1617572155.2,286047003.5,N
1617572175.1,286047007.0,Y
1617572176.0,286047007.0,P
1617572195.8,286047003.0,N
1617572215.6,286047004.2,N
1617572235.5,286047005.7,N
1617572255.3,286047005.1,N
1617572275.2,286047005.3,Y
1617572295.9,286047000.0,P
1617572315.7,286046999.8,N
1617572335.6,286047002.3,N
1617572355.4,286047000.2,N
1617572375.2,286047000.0,N
1617572395.1,286047002.3,N
1617572396.0,286047002.3,N
1617572415.8,286047001.7,N
1617572435.7,286047003.1,N
1617572455.5,286047001.3,N
1617572475.3,286047001.3,N
1617572495.2,286047002.8,N
1617572515.0,286047000.2,N
1617572515.9,286047000.2,N
1617572535.8,286047004.4,Y
1617572555.6,286047003.9,P
1617572575.4,286047003.1,N
1617572595.3,286047004.1,P
1617572615.1,286047001.3,N
1617572635.8,286047002.1,N
1617572655.7,286047002.1,N
1617572675.5,286047001.5,N
1617572695.3,286047001.6,N
1617572715.2,286047001.4,N
1617572735.0,286047003.5,Y
1617572735.9,286047003.5,P
1617572755.8,286047002.2,P
1617572775.6,286047002.7,P
1617572795.4,286047001.9,Y
1617572815.3,286047000.0,P
1617572835.1,286046998.2,N
1617572855.9,286046998.2,N
1617572875.7,286047001.1,N
1617572895.5,286046998.2,N
1617572915.4,286047001.1,N
1617572935.2,286047000.1,N
1617572955.0,286047002.4,N
1617572956.0,286047002.4,N
1617572975.8,286046999.7,N
1617572995.6,286047001.9,N
1617573015.5,286047001.7,N
1617573035.3,286047001.4,N
1617573055.1,286047001.9,N
1617573075.9,286047002.6,N
1617573095.7,286047001.5,N
1617573115.5,286047004.3,N
1617573135.4,286047004.4,N
1617573155.2,286047003.7,N
1617573175.1,286047002.4,N
1617573176.0,286047002.4,N
1617573195.8,286047001.6,N
1617573215.6,286047004.1,N
1617573235.5,286047002.6,N
1617573255.3,286047001.8,N
1617573275.1,286047004.4,N
1617573295.9,286047003.9,N
1617573315.7,286047003.4,N
1617573335.6,286047003.3,N
1617573355.4,286047003.2,N
1617573375.2,286047003.3,N
1617573395.1,286047003.5,N
1617573396.0,286047003.5,N
1617573415.8,286047004.3,N
1617573435